| time (UTC) | temp F | wind direction | speed MPH | gust MPH | rain 1hr in | rain 24hr in | rain mn in | humidity % | barometer mb |
| 20260505233516 | 47 | 29 | 6.0 | 11.0 | 0.00 | 0.00 | 0.00 | 90 | 1013.9 |
| 20260505232516 | 47 | 31 | 6.0 | 11.0 | 0.00 | 0.00 | 0.00 | 90 | 1014.0 |
| 20260505231536 | 47 | 37 | 4.0 | 10.0 | 0.00 | 0.00 | 0.00 | 90 | 1014.0 |
| 20260505230517 | 47 | 33 | 5.0 | 10.0 | 0.00 | 0.00 | 0.00 | 89 | 1014.0 |
| 20260505225516 | 47 | 35 | 6.0 | 10.0 | 0.00 | 0.00 | 0.00 | 89 | 1014.0 |
| 20260505224517 | 47 | 29 | 6.0 | 10.0 | 0.00 | 0.00 | 0.00 | 88 | 1014.1 |
| 20260505223517 | 47 | 32 | 5.0 | 11.0 | 0.00 | 0.00 | 0.00 | 88 | 1014.0 |
| 20260505222516 | 47 | 34 | 6.0 | 11.0 | 0.00 | 0.00 | 0.00 | 88 | 1014.1 |
| 20260505221516 | 47 | 32 | 5.0 | 11.0 | 0.00 | 0.00 | 0.00 | 87 | 1014.2 |
| 20260505220517 | 47 | 37 | 5.0 | 10.0 | 0.00 | 0.00 | 0.00 | 86 | 1014.2 |
| 20260505215516 | 47 | 35 | 5.0 | 10.0 | 0.00 | 0.00 | 0.00 | 86 | 1014.3 |
| 20260505214516 | 47 | 28 | 5.0 | 11.0 | 0.00 | 0.00 | 0.00 | 85 | 1014.4 |
| 20260505213516 | 47 | 30 | 5.0 | 11.0 | 0.00 | 0.00 | 0.00 | 85 | 1014.3 |
| 20260505212516 | 48 | 33 | 6.0 | 11.0 | 0.00 | 0.00 | 0.00 | 84 | 1014.4 |
| 20260505211516 | 48 | 31 | 6.0 | 13.0 | 0.00 | 0.00 | 0.00 | 84 | 1014.4 |
| 20260505210516 | 48 | 38 | 5.0 | 9.0 | 0.00 | 0.00 | 0.00 | 83 | 1014.4 |
| 20260505205516 | 48 | 39 | 5.0 | 9.0 | 0.00 | 0.00 | 0.00 | 83 | 1014.4 |
| 20260505204516 | 48 | 32 | 5.0 | 10.0 | 0.00 | 0.00 | 0.00 | 82 | 1014.3 |
| 20260505203516 | 49 | 31 | 5.0 | 11.0 | 0.00 | 0.00 | 0.00 | 82 | 1014.4 |
| 20260505202516 | 49 | 31 | 5.0 | 10.0 | 0.00 | 0.00 | 0.00 | 82 | 1014.3 |
| 20260505201516 | 49 | 30 | 6.0 | 10.0 | 0.00 | 0.00 | 0.00 | 81 | 1014.3 |
| 20260505200516 | 49 | 34 | 5.0 | 12.0 | 0.00 | 0.00 | 0.00 | 80 | 1014.1 |
| 20260505195536 | 50 | 29 | 5.0 | 11.0 | 0.00 | 0.00 | 0.00 | 79 | 1014.2 |
| 20260505194516 | 50 | 34 | 5.0 | 11.0 | 0.00 | 0.00 | 0.00 | 78 | 1014.0 |
| 20260505193516 | 51 | 30 | 5.0 | 11.0 | 0.00 | 0.00 | 0.00 | 78 | 1014.0 |
| 20260505192516 | 51 | 33 | 5.0 | 10.0 | 0.00 | 0.00 | 0.00 | 77 | 1013.9 |
| 20260505191516 | 52 | 31 | 6.0 | 11.0 | 0.00 | 0.00 | 0.00 | 74 | 1013.9 |
| 20260505190516 | 53 | 30 | 5.0 | 11.0 | 0.00 | 0.00 | 0.00 | 72 | 1013.8 |
| 20260505185516 | 54 | 31 | 7.0 | 17.0 | 0.00 | 0.00 | 0.00 | 69 | 1013.8 |
| 20260505184516 | 55 | 30 | 7.0 | 14.0 | 0.00 | 0.00 | 0.00 | 67 | 1013.8 |
| 20260505183517 | 55 | 30 | 7.0 | 12.0 | 0.00 | 0.00 | 0.00 | 65 | 1013.9 |
| 20260505182516 | 56 | 30 | 8.0 | 14.0 | 0.00 | 0.00 | 0.00 | 65 | 1013.9 |
| 20260505181516 | 57 | 24 | 5.0 | 13.0 | 0.00 | 0.00 | 0.00 | 65 | 1013.8 |
| 20260505180536 | 57 | 32 | 7.0 | 14.0 | 0.00 | 0.00 | 0.00 | 65 | 1013.9 |
| 20260505175516 | 57 | 34 | 6.0 | 13.0 | 0.00 | 0.00 | 0.00 | 68 | 1013.7 |
| 20260505174516 | 57 | 5 | 5.0 | 12.0 | 0.00 | 0.00 | 0.00 | 69 | 1013.8 |
| 20260505173536 | 57 | 17 | 6.0 | 15.0 | 0.00 | 0.00 | 0.00 | 69 | 1013.8 |
| 20260505172516 | 58 | 22 | 5.0 | 10.0 | 0.00 | 0.00 | 0.00 | 67 | 1013.9 |
| 20260505171516 | 59 | 32 | 5.0 | 12.0 | 0.00 | 0.00 | 0.00 | 67 | 1013.8 |
| 20260505170516 | 58 | 28 | 6.0 | 14.0 | 0.00 | 0.00 | 0.00 | 68 | 1013.8 |
| 20260505165516 | 59 | 4 | 5.0 | 13.0 | 0.00 | 0.00 | 0.00 | 67 | 1013.9 |
| 20260505164515 | 59 | 24 | 6.0 | 13.0 | 0.00 | 0.00 | 0.00 | 68 | 1013.9 |
| 20260505163516 | 60 | 6 | 5.0 | 11.0 | 0.00 | 0.00 | 0.00 | 67 | 1014.0 |
| 20260505162516 | 60 | 7 | 6.0 | 13.0 | 0.00 | 0.00 | 0.00 | 66 | 1013.9 |
| 20260505161516 | 61 | 27 | 5.0 | 11.0 | 0.00 | 0.00 | 0.00 | 66 | 1014.0 |
| 20260505160516 | 60 | 25 | 5.0 | 12.0 | 0.00 | 0.00 | 0.00 | 66 | 1014.0 |
| 20260505152516 | 61 | 36 | 7.0 | 14.0 | 0.00 | 0.00 | 0.00 | 59 | 1014.0 |
| 20260505151516 | 62 | 25 | 5.0 | 11.0 | 0.00 | 0.00 | 0.00 | 58 | 1014.0 |
| 20260505150516 | 62 | 31 | 7.0 | 14.0 | 0.00 | 0.00 | 0.00 | 58 | 1014.1 |
| 20260505140515 | 61 | 38 | 7.0 | 13.0 | 0.00 | 0.00 | 0.00 | 60 | 1014.3 |
| 20260505124516 | 57 | 10 | 4.0 | 12.0 | 0.00 | 0.00 | 0.00 | 80 | 1014.5 |
| 20260505123515 | 58 | 22 | 4.0 | 11.0 | 0.00 | 0.00 | 0.00 | 80 | 1014.4 |
| 20260505122515 | 58 | 32 | 7.0 | 15.0 | 0.00 | 0.00 | 0.00 | 78 | 1014.5 |
| 20260505121515 | 58 | 33 | 7.0 | 13.0 | 0.00 | 0.00 | 0.00 | 78 | 1014.5 |
| 20260505120515 | 58 | 26 | 7.0 | 12.0 | 0.00 | 0.00 | 0.00 | 78 | 1014.6 |
| 20260505115515 | 57 | 27 | 6.0 | 14.0 | 0.00 | 0.00 | 0.00 | 82 | 1014.5 |
| 20260505114515 | 56 | 31 | 5.0 | 12.0 | 0.00 | 0.00 | 0.00 | 84 | 1014.5 |
| 20260505113515 | 55 | 33 | 6.0 | 11.0 | 0.00 | 0.00 | 0.00 | 86 | 1014.5 |
| 20260505112515 | 54 | 38 | 4.0 | 9.0 | 0.00 | 0.00 | 0.00 | 86 | 1014.5 |
| 20260505111515 | 54 | 40 | 4.0 | 11.0 | 0.00 | 0.00 | 0.00 | 87 | 1014.6 |
| 20260505110515 | 53 | 35 | 6.0 | 14.0 | 0.00 | 0.00 | 0.00 | 87 | 1014.7 |
| 20260505101515 | 53 | 38 | 7.0 | 12.0 | 0.00 | 0.00 | 0.00 | 91 | 1014.8 |
| 20260505100515 | 53 | 44 | 6.0 | 11.0 | 0.00 | 0.00 | 0.00 | 93 | 1014.7 |
| 20260505095515 | 52 | 34 | 7.0 | 11.0 | 0.00 | 0.00 | 0.00 | 94 | 1014.6 |
| 20260505094515 | 52 | 40 | 3.0 | 9.0 | 0.00 | 0.00 | 0.00 | 96 | 1014.6 |
| 20260505093515 | 51 | 46 | 5.0 | 9.0 | 0.00 | 0.00 | 0.00 | 96 | 1014.5 |
| 20260505092515 | 51 | 35 | 4.0 | 9.0 | 0.00 | 0.00 | 0.00 | 96 | 1014.5 |
| 20260505091515 | 50 | 38 | 5.0 | 13.0 | 0.00 | 0.00 | 0.00 | 97 | 1014.5 |
| 20260505090515 | 50 | 37 | 4.0 | 11.0 | 0.00 | 0.00 | 0.00 | 98 | 1014.5 |
| 20260505085515 | 50 | 35 | 6.0 | 13.0 | 0.00 | 0.00 | 0.00 | 99 | 1014.5 |
| 20260505084515 | 51 | 21 | 4.0 | 10.0 | 0.00 | 0.00 | 0.00 | 99 | 1014.5 |
| 20260505083515 | 51 | 39 | 4.0 | 8.0 | 0.00 | 0.00 | 0.00 | 99 | 1014.4 |
| 20260505082514 | 51 | 41 | 3.0 | 6.0 | 0.00 | 0.00 | 0.00 | 99 | 1014.5 |
| 20260505081555 | 50 | 35 | 4.0 | 7.0 | 0.00 | 0.00 | 0.00 | 99 | 1014.5 |
| 20260505080517 | 50 | 48 | 4.0 | 6.0 | 0.00 | 0.00 | 0.00 | 99 | 1014.4 |
| 20260505075517 | 50 | 47 | 4.0 | 7.0 | 0.00 | 0.00 | 0.00 | 99 | 1014.4 |
| 20260505074516 | 50 | 43 | 3.0 | 7.0 | 0.00 | 0.00 | 0.00 | 99 | 1014.4 |
| 20260505073517 | 50 | 39 | 4.0 | 9.0 | 0.00 | 0.00 | 0.00 | 99 | 1014.4 |
| 20260505072537 | 49 | 50 | 4.0 | 7.0 | 0.00 | 0.00 | 0.00 | 99 | 1014.4 |
| 20260505071517 | 48 | 42 | 3.0 | 7.0 | 0.00 | 0.00 | 0.00 | 99 | 1014.4 |
| 20260505070516 | 48 | 38 | 4.0 | 6.0 | 0.00 | 0.00 | 0.00 | 99 | 1014.4 |
| 20260505065516 | 48 | 55 | 4.0 | 7.0 | 0.00 | 0.00 | 0.00 | 99 | 1014.3 |
| 20260505064516 | 48 | 52 | 3.0 | 6.0 | 0.00 | 0.00 | 0.00 | 99 | 1014.4 |
| 20260505063517 | 48 | 51 | 2.0 | 5.0 | 0.00 | 0.00 | 0.00 | 99 | 1014.4 |
| 20260505062516 | 48 | 52 | 2.0 | 4.0 | 0.00 | 0.00 | 0.00 | 99 | 1014.3 |
| 20260505061516 | 48 | 52 | 2.0 | 4.0 | 0.00 | 0.00 | 0.00 | 99 | 1014.3 |
| 20260505060517 | 47 | 52 | 3.0 | 5.0 | 0.00 | 0.00 | 0.00 | 99 | 1014.3 |
| 20260505055537 | 47 | 49 | 3.0 | 6.0 | 0.00 | 0.00 | 0.00 | 99 | 1014.3 |
| 20260505054516 | 47 | 55 | 3.0 | 4.0 | 0.00 | 0.00 | 0.00 | 98 | 1014.3 |
| 20260505053517 | 47 | 57 | 2.0 | 4.0 | 0.00 | 0.00 | 0.00 | 98 | 1014.2 |
| 20260505052516 | 47 | 56 | 3.0 | 4.0 | 0.00 | 0.00 | 0.00 | 98 | 1014.3 |
| 20260505051516 | 47 | 56 | 3.0 | 6.0 | 0.00 | 0.00 | 0.00 | 98 | 1014.3 |
| 20260505050516 | 48 | 59 | 3.0 | 5.0 | 0.00 | 0.00 | 0.00 | 98 | 1014.3 |
| 20260505041516 | 49 | 51 | 4.0 | 7.0 | 0.00 | 0.00 | 0.00 | 98 | 1014.2 |
| 20260505040516 | 49 | 43 | 3.0 | 8.0 | 0.00 | 0.00 | 0.00 | 98 | 1014.2 |
| 20260505035516 | 49 | 44 | 4.0 | 7.0 | 0.00 | 0.00 | 0.00 | 98 | 1014.1 |
| 20260505034516 | 49 | 51 | 3.0 | 6.0 | 0.00 | 0.00 | 0.00 | 98 | 1014.1 |
| 20260505033536 | 49 | 56 | 3.0 | 5.0 | 0.00 | 0.00 | 0.00 | 98 | 1014.0 |
| 20260505032536 | 49 | 57 | 3.0 | 6.0 | 0.00 | 0.00 | 0.00 | 98 | 1014.0 |
| 20260505031516 | 50 | 57 | 3.0 | 6.0 | 0.00 | 0.00 | 0.00 | 98 | 1014.1 |
| 20260505030516 | 50 | 58 | 3.0 | 7.0 | 0.00 | 0.00 | 0.00 | 98 | 1014.1 |
| 20260505025516 | 50 | 57 | 3.0 | 6.0 | 0.00 | 0.00 | 0.00 | 98 | 1014.2 |
| 20260505024537 | 50 | 61 | 3.0 | 5.0 | 0.00 | 0.00 | 0.00 | 98 | 1014.2 |
| 20260505023516 | 50 | 60 | 3.0 | 6.0 | 0.00 | 0.00 | 0.00 | 98 | 1014.2 |
| 20260505022516 | 50 | 59 | 3.0 | 6.0 | 0.00 | 0.00 | 0.00 | 98 | 1014.2 |
| 20260505021536 | 50 | 58 | 3.0 | 5.0 | 0.00 | 0.00 | 0.00 | 98 | 1014.3 |
| 20260505020516 | 50 | 57 | 3.0 | 6.0 | 0.00 | 0.00 | 0.00 | 98 | 1014.3 |
| 20260505015516 | 50 | 58 | 3.0 | 5.0 | 0.00 | 0.00 | 0.00 | 98 | 1014.3 |
| 20260505014516 | 50 | 57 | 3.0 | 6.0 | 0.00 | 0.00 | 0.00 | 98 | 1014.5 |
| 20260505013516 | 51 | 55 | 3.0 | 5.0 | 0.00 | 0.00 | 0.00 | 98 | 1014.6 |
| 20260505012516 | 51 | 55 | 2.0 | 6.0 | 0.00 | 0.00 | 0.00 | 98 | 1014.7 |
| 20260505011516 | 51 | 55 | 2.0 | 5.0 | 0.00 | 0.00 | 0.00 | 98 | 1014.7 |
| 20260505010516 | 51 | 56 | 2.0 | 5.0 | 0.00 | 0.00 | 0.00 | 98 | 1014.7 |
| 20260505005516 | 51 | 43 | 3.0 | 7.0 | 0.00 | 0.00 | 0.00 | 98 | 1014.7 |
| 20260505004516 | 51 | 48 | 4.0 | 9.0 | 0.00 | 0.00 | 0.00 | 98 | 1014.8 |
| 20260505003516 | 51 | 49 | 4.0 | 9.0 | 0.00 | 0.00 | 0.00 | 98 | 1014.8 |
| 20260505002516 | 51 | 45 | 4.0 | 7.0 | 0.00 | 0.00 | 0.00 | 98 | 1014.8 |
| 20260505001516 | 51 | 44 | 4.0 | 9.0 | 0.00 | 0.00 | 0.00 | 97 | 1014.9 |
| 20260505000536 | 51 | 51 | 4.0 | 8.0 | 0.00 | 0.00 | 0.00 | 97 | 1015.0 |
| 20260504235516 | 51 | 39 | 4.0 | 8.0 | 0.00 | 0.00 | 0.00 | 97 | 1015.1 |
| 20260504234515 | 51 | 49 | 4.0 | 7.0 | 0.00 | 0.00 | 0.00 | 97 | 1015.1 |